Temp
73 74 73 75 63 56 53 57 68 67 71 78 80 75 70 72 71 59 76 79 77 75 77 79 79 80 80 80 79 79 79 79 79 79 79 79 79 79 79 79 79 79 80 80 80 80 79 79 79
76 76 74 68 56 49 54 65 64 70 77 78 78 77 73 69 78 73 72 77 77 75 75 77 80 80 80 79 79 79 79 79 79 79 79 79 79 79 79 79 79 79 80 79 79 79 79 79 79
74 80 69 63 53 51 57 68 70 74 79 79 76 81 77 72 76 76 77 76 76 73 75 77 79 80 80 79 79 79 79 79 79 79 79 79 78 78 78 79 79 79 80 79 79 78 78 78 78
78 74 69 60 56 66 68 70 72 74 79 81 81 73 80 85 79 78 79 78 76 73 75 79 79 79 79 79 79 79 79 79 79 79 79 78 78 78 78 78 79 79 79 79 79 78 78 78 78
73 66 58 54 60 71 74 72 74 74 72 73 76 70 73 80 81 80 79 79 74 73 76 78 79 79 79 80 79 79 78 78 78 78 78 78 78 78 78 78 78 79 79 79 79 78 78 78 78
68 65 55 52 60 73 78 76 79 74 74 73 75 72 70 81 80 79 80 77 76 74 75 77 79 79 79 79 79 78 78 78 78 78 78 78 77 78 78 78 78 78 78 78 78 78 77 77 78
64 60 55 55 62 69 77 76 75 74 72 71 75 66 69 77 82 81 79 76 76 75 75 75 77 79 79 78 78 78 77 77 77 77 77 77 77 77 77 77 77 77 77 77 77 77 77 77 77
69 64 55 59 63 65 76 75 76 77 72 76 78 66 64 73 82 79 78 73 74 74 74 73 74 75 75 76 78 77 77 77 77 77 77 77 77 77 77 76 77 77 77 77 77 77 77 77 77
72 60 56 60 66 69 75 74 74 76 71 75 76 73 76 78 74 72 71 73 71 74 72 74 73 72 72 73 76 77 78 78 77 77 77 75 69 71 74 75 77 77 77 77 77 77 77 76 75
68 56 63 72 71 68 71 72 78 73 73 73 74 80 73 73 70 67 67 66 67 67 69 70 73 71 71 78 70 68 72 70 69 70 70 68 67 67 73 74 77 77 77 77 76 76 74 71 64
68 68 74 77 76 77 75 80 79 73 67 73 71 73 68 70 69 66 66 66 67 67 62 69 69 69 72 73 68 66 66 66 67 69 68 66 68 66 67 66 66 66 71 66 68 66 65 64 63
65 75 78 79 80 78 75 77 76 75 72 78 75 67 69 67 66 66 66 66 66 67 67 68 71 73 71 71 69 68 68 67 67 66 66 65 63 64 64 64 64 63 63 63 62 62 62 62 62
68 74 78 78 77 73 80 74 68 65 73 73 70 67 65 65 65 66 67 66 67 65 66 68 71 75 71 71 71 70 69 69 67 66 66 65 64 63 63 63 63 62 62 61 60 60 60 59 60
75 75 76 75 75 75 76 70 67 67 70 67 67 64 65 64 65 66 65 65 67 68 68 68 67 66 69 67 67 67 68 67 65 64 65 65 63 62 62 61 62 61 61 60 59 58 57 56 56
75 72 74 77 72 73 78 61 62 66 69 65 64 64 64 65 66 63 65 64 65 66 65 65 65 66 66 65 66 66 67 66 64 64 65 66 63 62 62 61 60 60 59 60 59 57 55 54 56
69 66 59 70 75 75 75 53 64 68 66 64 66 66 64 62 64 64 63 62 63 62 61 63 67 65 64 64 63 64 64 64 62 64 63 66 67 64 62 61 60 62 61 58 56 55 54 53 52
61 57 56 67 73 75 68 55 63 68 66 64 65 64 63 61 63 63 63 62 61 60 61 62 62 63 63 63 62 62 63 63 63 62 64 64 65 65 62 59 59 61 58 57 56 55 53 52 52
57 59 61 64 70 62 57 56 61 64 64 63 62 63 62 60 61 62 62 63 63 64 62 61 60 61 61 61 61 61 61 61 62 62 62 63 63 64 60 59 58 57 56 54 53 52 52 52 52
67 64 64 68 72 55 58 58 59 63 62 61 61 61 60 59 62 63 63 64 63 62 62 61 61 61 61 60 59 59 58 60 62 61 64 64 64 63 59 58 58 56 55 52 53 51 50 50 50
67 63 59 66 72 55 54 53 57 60 59 60 59 59 59 59 59 60 61 61 60 59 59 59 59 59 59 60 58 59 58 60 62 61 61 63 64 64 64 62 60 59 55 54 51 50 49 49 50
64 62 62 60 66 61 55 51 54 57 59 59 58 58 58 57 56 57 57 58 59 58 59 59 58 57 57 57 58 58 58 59 59 59 59 61 63 64 64 61 59 56 53 51 50 50 50 47 48
60 68 68 66 59 51 61 38 52 53 53 54 54 53 54 55 56 56 56 56 57 58 59 59 58 58 58 58 57 56 55 54 56 57 59 60 62 62 62 61 58 55 53 51 51 53 50 48 46
64 69 65 62 57 51 56 44 50 55 49 50 52 52 53 54 55 55 55 56 58 59 57 57 57 58 58 57 57 55 55 55 56 57 57 57 57 58 59 57 58 56 54 52 52 52 51 49 48
72 65 61 55 50 44 50 47 47 50 50 50 51 52 53 53 53 55 57 57 57 58 58 55 55 54 54 55 54 53 53 54 52 51 51 52 54 57 58 60 58 57 55 52 52 53 52 50 48
65 52 42 42 40 41 53 47 46 52 53 53 50 51 51 54 53 53 54 55 54 53 54 54 53 52 52 53 53 53 57 57 52 52 52 50 53 56 54 57 55 55 54 53 52 52 51 50 48
57 54 44 37 38 44 51 42 46 52 55 54 53 51 53 52 53 52 53 55 55 53 54 52 52 51 52 52 51 52 52 51 55 55 53 53 53 53 55 55 55 55 55 56 52 50 50 50 51
61 52 56 48 45 42 43 48 51 53 52 52 52 53 52 52 51 51 53 55 55 53 53 52 51 50 51 51 51 51 50 50 53 50 51 54 54 54 55 55 54 55 54 53 52 51 52 50 51
62 64 49 45 37 35 39 41 44 49 50 52 53 50 50 52 52 53 54 53 52 51 51 53 52 50 51 51 49 50 49 48 48 49 51 50 50 51 52 54 54 54 54 54 53 53 54 52 49
57 54 52 49 44 38 34 40 53 52 54 52 52 53 53 54 54 53 52 52 51 51 50 50 50 50 50 50 49 48 48 48 48 48 49 49 50 53 51 54 53 53 53 53 52 52 53 50 49
60 53 52 42 41 42 39 40 52 52 55 52 50 53 53 53 51 50 50 51 50 49 50 50 50 50 50 50 49 50 48 47 47 46 48 50 49 50 50 52 52 52 52 51 51 51 49 48 48
MSLP
1010.69 1011.15 1011.50 1011.58 1013.04 1013.77 1013.86 1013.10 1011.96 1011.02 1010.22 1009.31 1008.86 1009.13 1010.04 1010.50 1010.97 1012.41 1011.98 1012.57 1013.14 1013.82 1013.88 1014.36 1014.57 1014.70 1014.99 1015.23 1015.45 1015.60 1015.71 1015.81 1015.93 1016.16 1016.42 1016.53 1016.66 1016.77 1016.97 1017.14 1017.27 1017.38 1017.56 1017.64 1017.64 1017.62 1017.68 1017.55 1017.45
1010.50 1011.38 1011.75 1012.15 1013.23 1013.84 1013.11 1011.72 1011.15 1010.02 1009.46 1009.27 1009.22 1009.56 1010.12 1010.91 1011.18 1012.16 1012.92 1013.40 1013.47 1013.77 1014.10 1014.42 1014.65 1014.87 1015.16 1015.47 1015.71 1015.86 1016.00 1016.11 1016.16 1016.34 1016.68 1016.96 1017.13 1017.24 1017.43 1017.49 1017.61 1017.72 1017.89 1017.92 1017.91 1017.86 1017.87 1017.79 1017.71
1010.58 1010.64 1011.91 1012.25 1013.08 1013.10 1011.85 1010.54 1010.18 1009.46 1009.12 1009.43 1009.63 1009.52 1010.17 1011.18 1011.90 1012.39 1012.84 1013.70 1013.97 1014.46 1014.75 1014.91 1015.13 1015.38 1015.61 1015.90 1016.09 1016.22 1016.28 1016.47 1016.62 1016.79 1017.13 1017.38 1017.58 1017.73 1017.76 1017.94 1018.03 1018.02 1017.99 1018.03 1018.12 1018.17 1018.10 1017.98 1017.93
1010.25 1011.10 1012.14 1012.63 1012.83 1011.48 1010.24 1009.60 1009.32 1009.29 1009.17 1009.29 1009.36 1009.84 1010.28 1010.51 1011.47 1012.39 1013.44 1013.89 1014.07 1014.57 1014.92 1015.09 1015.31 1015.46 1015.63 1016.04 1016.24 1016.43 1016.51 1016.63 1016.96 1017.11 1017.43 1017.77 1018.01 1018.12 1018.07 1018.20 1018.27 1018.26 1018.26 1018.16 1018.19 1018.35 1018.29 1018.18 1018.04
1010.53 1011.49 1012.27 1012.27 1011.32 1009.81 1008.65 1008.85 1009.14 1009.32 1009.39 1009.71 1009.45 1010.17 1010.63 1010.96 1011.55 1012.49 1013.13 1013.85 1014.18 1014.76 1014.92 1015.14 1015.38 1015.62 1015.76 1015.92 1016.10 1016.27 1016.58 1016.69 1016.97 1017.22 1017.28 1017.59 1017.92 1018.04 1018.18 1018.37 1018.53 1018.54 1018.40 1018.39 1018.42 1018.54 1018.59 1018.52 1018.29
1010.94 1011.70 1012.33 1011.93 1010.42 1008.86 1007.32 1007.71 1008.65 1008.97 1009.35 1009.63 1009.85 1010.73 1011.74 1011.82 1011.80 1012.68 1013.17 1013.85 1014.41 1015.03 1015.77 1016.13 1016.28 1016.40 1016.58 1016.90 1017.01 1017.12 1017.17 1017.04 1017.03 1017.11 1017.32 1017.43 1017.68 1017.92 1018.06 1018.19 1018.26 1018.48 1018.68 1018.70 1018.76 1018.72 1018.70 1018.63 1018.50
1010.87 1011.98 1011.79 1011.06 1009.84 1008.27 1007.27 1007.92 1008.15 1008.46 1009.06 1009.58 1009.79 1010.95 1011.83 1011.53 1012.23 1013.32 1014.57 1015.28 1015.64 1016.09 1016.40 1016.78 1016.97 1016.92 1016.85 1016.86 1017.29 1017.79 1018.06 1017.92 1017.86 1017.69 1017.56 1017.52 1017.63 1017.90 1018.10 1018.15 1018.26 1018.40 1018.42 1018.60 1018.84 1018.75 1018.70 1018.71 1018.62
1010.25 1011.23 1011.17 1010.38 1009.05 1007.60 1006.45 1007.21 1007.09 1007.56 1009.26 1009.65 1009.96 1010.68 1011.61 1012.20 1012.59 1013.57 1015.33 1016.88 1017.61 1017.24 1017.03 1017.13 1017.05 1017.43 1017.46 1017.56 1017.68 1017.33 1017.56 1018.06 1018.29 1018.20 1017.98 1017.81 1017.88 1017.82 1018.00 1018.20 1018.30 1018.40 1018.46 1018.46 1018.67 1018.60 1018.64 1018.70 1018.64
1009.91 1010.65 1010.33 1009.82 1008.21 1007.04 1005.83 1006.83 1008.22 1008.51 1009.25 1009.90 1009.95 1010.37 1011.63 1012.51 1013.24 1013.22 1015.46 1016.80 1018.36 1019.63 1019.04 1018.15 1017.58 1017.48 1017.90 1018.04 1017.71 1017.71 1017.60 1017.72 1018.03 1018.06 1018.14 1018.24 1018.29 1018.08 1018.02 1018.07 1018.16 1018.31 1018.54 1018.67 1018.67 1018.58 1018.65 1018.64 1018.71
1009.33 1009.95 1008.97 1008.08 1006.96 1006.40 1006.13 1006.09 1006.94 1008.74 1009.39 1010.36 1010.63 1011.41 1012.43 1012.80 1013.97 1015.17 1016.14 1017.77 1019.33 1019.06 1019.21 1018.84 1018.58 1018.27 1018.44 1018.50 1018.45 1017.99 1017.89 1017.92 1017.96 1018.22 1018.24 1018.35 1018.46 1018.38 1018.12 1018.22 1018.20 1018.47 1018.44 1018.67 1018.97 1018.87 1018.81 1018.93 1019.07
1008.34 1008.41 1007.20 1006.64 1005.97 1005.32 1005.48 1005.69 1006.25 1008.21 1009.98 1009.67 1010.66 1012.62 1013.51 1013.88 1014.13 1015.42 1016.69 1018.53 1018.96 1018.25 1020.53 1020.59 1019.77 1019.26 1018.46 1018.58 1018.44 1018.32 1018.10 1018.26 1018.29 1018.37 1018.20 1018.60 1018.71 1018.79 1018.77 1018.98 1018.79 1018.68 1018.96 1019.14 1019.06 1019.14 1019.23 1019.23 1019.22
1007.58 1006.86 1006.33 1005.78 1005.21 1004.92 1005.27 1005.97 1007.27 1008.27 1009.11 1011.37 1012.58 1013.61 1014.08 1014.46 1014.77 1015.69 1016.84 1018.59 1019.01 1018.92 1019.43 1020.50 1019.98 1019.22 1018.52 1018.17 1017.97 1017.90 1018.03 1018.35 1018.54 1018.91 1018.89 1019.05 1019.23 1018.78 1018.84 1018.90 1018.99 1019.35 1019.52 1019.27 1019.33 1019.45 1019.40 1019.47 1019.35
1007.13 1006.52 1005.91 1005.30 1004.95 1005.04 1005.37 1007.76 1009.44 1010.78 1011.30 1012.34 1013.72 1014.87 1015.55 1016.05 1016.40 1017.08 1017.89 1018.99 1018.65 1017.24 1017.96 1017.91 1017.69 1017.62 1018.75 1018.66 1018.23 1017.74 1017.86 1018.30 1019.21 1019.27 1019.14 1019.11 1019.01 1018.86 1018.81 1018.68 1018.94 1019.21 1019.20 1019.45 1019.36 1019.68 1019.63 1019.57 1019.54
1007.24 1006.56 1005.83 1005.39 1005.49 1005.55 1006.69 1009.16 1009.34 1013.87 1013.36 1013.97 1014.78 1015.73 1016.23 1016.61 1017.37 1018.10 1019.06 1019.67 1019.12 1018.21 1017.87 1018.56 1018.67 1019.06 1018.88 1019.20 1018.85 1018.66 1018.46 1019.11 1019.21 1019.41 1019.31 1019.41 1019.52 1019.40 1019.13 1019.02 1019.20 1019.45 1019.31 1019.42 1019.49 1019.75 1020.06 1019.94 1019.64
1007.19 1007.07 1006.30 1005.66 1006.12 1006.16 1006.97 1011.51 1013.32 1014.88 1014.41 1015.23 1015.96 1016.58 1017.46 1017.91 1018.40 1018.91 1019.67 1020.01 1019.20 1019.45 1019.78 1019.91 1019.98 1019.60 1019.55 1019.87 1019.52 1019.18 1019.26 1019.45 1019.99 1019.91 1019.78 1019.85 1019.71 1019.37 1019.39 1019.41 1019.49 1019.56 1019.44 1019.29 1019.56 1019.93 1019.86 1019.61 1019.51
1008.03 1007.68 1007.55 1006.53 1006.61 1006.92 1007.93 1014.44 1015.76 1016.41 1015.73 1016.10 1016.87 1017.58 1018.33 1018.89 1019.33 1019.72 1019.79 1020.52 1020.91 1021.23 1021.20 1020.80 1019.99 1019.91 1020.53 1020.52 1020.28 1020.39 1020.42 1020.40 1020.36 1020.30 1020.22 1020.11 1019.75 1019.49 1019.33 1019.39 1019.33 1019.52 1019.45 1019.27 1019.54 1019.98 1019.82 1019.83 1019.68
1009.23 1008.81 1008.40 1008.10 1007.86 1008.41 1010.52 1016.10 1017.69 1018.09 1018.13 1016.91 1017.84 1018.62 1019.29 1019.98 1020.00 1020.35 1020.79 1020.69 1021.36 1021.88 1021.83 1021.26 1020.88 1020.75 1020.96 1021.08 1020.91 1020.75 1020.83 1020.46 1020.32 1020.48 1020.42 1020.69 1020.02 1019.65 1019.55 1019.55 1019.45 1019.56 1019.28 1019.50 1019.71 1019.93 1020.00 1020.11 1019.59
1010.17 1009.69 1009.39 1009.46 1010.64 1011.78 1014.55 1017.35 1018.90 1019.13 1018.74 1018.82 1019.53 1019.86 1020.34 1020.85 1021.33 1021.27 1021.40 1021.74 1021.97 1022.01 1021.79 1021.91 1021.63 1021.36 1021.00 1020.81 1020.82 1020.32 1020.55 1020.08 1020.26 1020.47 1020.44 1019.86 1019.90 1019.28 1019.49 1019.58 1019.42 1019.32 1019.49 1019.58 1019.82 1019.89 1019.88 1019.94 1019.88
1009.65 1009.94 1010.09 1010.15 1011.00 1014.09 1016.66 1018.47 1019.52 1020.00 1019.90 1020.03 1020.77 1021.01 1021.49 1021.35 1021.55 1022.31 1022.16 1022.06 1022.12 1022.42 1022.47 1022.05 1021.85 1021.73 1021.36 1021.37 1021.15 1020.57 1020.67 1020.84 1020.63 1020.50 1020.10 1019.76 1019.23 1019.18 1019.53 1019.09 1019.35 1019.38 1019.39 1019.71 1020.00 1019.77 1020.14 1019.99 1019.79
1009.57 1009.95 1010.56 1010.68 1011.93 1014.88 1018.08 1019.48 1020.75 1020.97 1021.11 1021.31 1021.55 1022.15 1022.44 1022.45 1022.65 1022.78 1023.08 1022.62 1022.50 1023.04 1023.00 1022.59 1022.38 1022.33 1022.17 1022.00 1021.86 1021.48 1021.37 1020.80 1021.04 1020.87 1020.41 1019.91 1019.22 1019.08 1019.06 1019.07 1019.10 1019.15 1019.54 1019.82 1019.92 1019.94 1020.02 1020.06 1019.70
1010.14 1010.64 1010.75 1011.20 1012.16 1015.04 1016.58 1019.85 1021.11 1022.11 1022.47 1022.65 1022.96 1023.06 1023.06 1023.12 1023.09 1023.81 1023.90 1023.56 1023.26 1023.41 1023.42 1022.98 1022.85 1022.80 1022.57 1022.13 1021.62 1021.57 1021.38 1020.94 1020.75 1020.99 1020.65 1019.82 1019.57 1018.99 1018.83 1018.86 1018.97 1019.20 1019.51 1019.71 1019.83 1019.93 1019.99 1020.01 1019.85
1010.42 1010.75 1010.77 1011.29 1012.31 1014.14 1014.57 1019.55 1021.37 1022.63 1023.34 1023.80 1024.23 1024.21 1024.12 1024.33 1023.85 1024.38 1024.60 1024.45 1024.38 1024.15 1024.15 1023.88 1023.60 1023.37 1023.24 1022.59 1023.04 1022.69 1022.66 1021.92 1021.82 1021.78 1020.98 1020.49 1019.46 1019.48 1018.90 1018.72 1018.68 1019.14 1019.25 1019.58 1019.96 1019.85 1019.84 1019.75 1020.10
1010.91 1010.84 1011.37 1012.04 1013.19 1014.31 1015.62 1018.35 1021.52 1022.10 1023.55 1024.33 1024.93 1024.99 1024.82 1024.64 1024.69 1024.83 1024.83 1024.65 1024.58 1024.53 1024.33 1024.32 1023.97 1023.45 1023.12 1022.99 1022.84 1022.46 1022.55 1021.92 1021.62 1021.23 1020.92 1020.54 1019.93 1019.45 1018.98 1018.95 1018.94 1019.16 1019.20 1019.39 1019.67 1019.58 1019.50 1019.72 1019.89
1010.56 1011.17 1012.26 1013.36 1014.66 1016.06 1016.99 1018.44 1021.79 1022.47 1023.64 1024.59 1025.18 1025.27 1025.35 1025.45 1025.51 1025.30 1025.10 1024.99 1024.79 1024.65 1024.44 1024.44 1024.09 1023.78 1023.46 1023.19 1022.91 1022.75 1022.50 1021.98 1021.76 1021.52 1021.28 1020.63 1020.04 1019.68 1019.46 1019.21 1019.00 1018.91 1018.93 1019.03 1018.95 1019.19 1019.24 1019.33 1019.50
1011.07 1013.00 1014.58 1015.89 1016.88 1017.57 1017.72 1019.43 1022.18 1023.16 1023.89 1024.55 1025.08 1025.35 1025.04 1025.17 1024.90 1025.16 1024.90 1024.73 1024.80 1024.52 1024.55 1024.56 1024.40 1023.88 1023.42 1023.14 1022.89 1022.62 1022.24 1021.87 1021.77 1021.50 1021.19 1020.83 1020.44 1020.04 1019.84 1019.42 1019.20 1018.99 1018.67 1018.54 1018.62 1018.78 1018.88 1019.10 1019.32
1012.03 1013.48 1015.24 1016.63 1017.92 1018.32 1018.90 1021.26 1022.88 1023.64 1024.08 1024.58 1025.11 1025.34 1025.11 1025.22 1025.02 1025.16 1024.88 1024.78 1024.38 1024.52 1024.65 1024.69 1024.53 1024.14 1023.45 1023.16 1022.96 1022.62 1022.21 1021.91 1021.62 1021.35 1020.98 1020.60 1020.46 1020.05 1019.41 1019.41 1019.53 1019.03 1018.76 1018.13 1018.34 1018.54 1018.62 1018.80 1019.00
1012.46 1013.54 1014.62 1016.15 1017.69 1019.03 1020.81 1022.34 1023.31 1023.88 1024.50 1024.82 1025.06 1025.24 1025.24 1025.11 1025.08 1025.16 1024.92 1024.84 1024.89 1024.81 1024.75 1024.65 1024.53 1024.19 1023.69 1023.28 1022.98 1022.69 1022.49 1022.10 1021.76 1021.21 1020.86 1020.45 1020.35 1019.82 1019.30 1019.24 1019.09 1018.90 1018.75 1018.51 1018.31 1018.54 1018.63 1018.53 1018.72
1013.29 1014.00 1015.26 1017.02 1018.70 1020.13 1021.90 1022.72 1023.36 1023.78 1024.36 1024.68 1024.90 1024.82 1024.95 1024.95 1025.18 1025.19 1025.15 1025.26 1025.13 1025.08 1024.85 1024.67 1024.47 1024.21 1023.67 1023.24 1023.11 1022.89 1022.59 1022.12 1021.73 1021.41 1020.85 1020.57 1020.34 1019.93 1019.59 1019.21 1018.89 1018.84 1018.60 1018.53 1018.57 1018.40 1018.42 1018.49 1018.64
1014.51 1015.26 1016.44 1017.77 1019.38 1021.10 1022.85 1023.08 1023.14 1023.54 1024.13 1024.46 1024.44 1024.71 1025.12 1025.27 1025.33 1025.16 1025.44 1025.51 1025.46 1025.39 1025.14 1025.07 1024.59 1024.19 1023.91 1023.56 1023.23 1022.96 1022.50 1022.15 1021.76 1021.53 1020.93 1020.54 1020.19 1019.90 1019.61 1019.21 1019.02 1018.92 1018.86 1018.62 1018.81 1018.83 1018.63 1018.75 1018.76
1015.63 1016.48 1017.36 1018.86 1020.64 1022.13 1023.32 1023.79 1023.79 1023.24 1023.86 1024.40 1024.76 1024.77 1024.99 1025.22 1025.44 1025.59 1025.75 1025.81 1025.65 1025.38 1025.11 1025.05 1024.56 1024.31 1023.92 1023.52 1023.14 1022.87 1022.44 1022.28 1021.83 1021.37 1020.99 1020.68 1020.55 1020.11 1019.81 1019.41 1019.29 1019.36 1019.38 1019.10 1019.12 1019.31 1019.21 1019.07 1018.86
Wind_Speed
5 4 1 4 5 6 4 7 3 6 4 3 2 8 8 1 2 4 4 11 18 13 13 13 16 16 17 17 16 16 16 16 16 16 17 18 18 19 18 17 17 17 17 16 16 16 15 15 15
2 5 3 3 5 1 6 6 8 11 4 4 5 4 5 4 5 10 10 12 14 12 10 11 17 17 18 17 16 16 16 16 16 18 18 18 18 18 18 16 16 16 15 15 14 13 13 13 14
2 3 4 4 3 5 6 6 11 4 12 5 3 3 3 4 11 5 12 13 12 9 7 11 16 15 17 17 16 16 15 15 18 18 18 18 18 17 16 15 14 14 13 12 12 12 12 12 14
0 5 5 4 5 8 7 6 8 2 3 4 7 5 6 1 4 8 14 14 14 10 7 14 16 16 17 18 18 15 16 18 17 18 19 18 17 16 14 13 12 12 11 11 11 11 12 13 15
4 3 3 2 7 6 8 2 7 5 5 1 1 3 5 5 19 18 17 14 14 11 10 13 17 17 18 19 19 18 18 18 18 18 18 18 16 14 13 12 10 9 9 10 10 11 11 13 15
4 3 3 3 5 7 3 6 12 5 6 5 8 6 3 11 18 15 15 14 13 13 9 9 15 15 15 15 15 16 16 17 18 18 17 17 15 13 12 11 10 7 6 8 10 11 11 12 15
5 4 5 4 5 8 4 5 15 10 10 5 5 6 2 6 10 13 11 11 12 11 9 7 8 13 17 17 16 14 12 13 14 14 14 14 14 12 10 9 8 6 6 6 8 10 10 12 12
6 5 3 4 6 8 2 8 8 13 5 4 0 7 6 2 10 16 13 10 8 6 9 6 8 9 9 10 16 16 15 13 12 12 12 12 12 11 10 7 6 5 4 6 7 7 8 9 11
5 2 5 6 4 7 4 7 3 7 9 1 1 4 9 17 15 20 15 13 8 8 4 7 9 8 6 6 10 12 15 15 13 12 12 8 3 5 5 5 4 4 3 4 5 8 7 10 12
5 3 8 9 4 3 2 1 11 7 6 6 7 13 18 21 18 20 20 16 15 5 18 3 5 6 5 5 4 5 7 4 5 5 5 3 3 3 5 3 3 3 4 7 8 9 11 10 4
6 9 9 6 4 5 4 9 2 15 2 14 19 18 17 15 16 22 23 17 11 26 16 9 3 4 5 6 4 0 1 2 1 5 5 3 2 4 4 1 3 4 8 3 4 5 4 6 4
4 9 9 7 5 4 3 1 12 6 7 13 15 18 15 13 12 17 20 17 19 25 19 3 8 7 6 6 5 4 3 3 0 4 5 4 3 4 4 3 5 4 2 4 5 4 5 6 6
4 3 3 4 4 2 4 18 10 17 20 19 22 21 18 16 17 16 16 19 24 31 21 18 12 6 1 3 3 1 2 4 3 4 4 3 3 4 4 4 4 4 4 4 4 4 5 5 6
6 6 5 3 5 4 14 14 12 11 18 23 20 17 13 16 16 14 9 10 14 17 16 2 9 9 7 6 6 4 6 5 4 4 4 5 3 3 4 4 4 3 4 4 4 4 3 4 4
6 9 9 8 4 2 15 20 19 14 21 21 18 14 14 11 10 9 6 10 14 9 7 7 7 9 9 6 5 7 6 6 5 4 5 3 3 5 5 4 4 3 3 5 4 2 1 3 4
6 4 4 7 2 3 13 8 17 11 17 19 17 13 14 13 13 12 10 9 11 9 7 4 7 10 8 7 7 5 4 3 3 3 3 4 3 4 4 3 3 2 3 3 2 2 3 4 4
7 6 2 4 8 6 16 13 14 12 11 20 15 14 15 15 14 13 13 10 9 6 4 8 8 7 6 5 4 4 4 2 2 3 2 5 3 2 3 3 3 2 3 3 2 0 1 1 4
5 6 6 8 9 29 28 20 14 14 17 17 14 14 14 13 14 13 13 10 8 8 9 6 5 8 6 3 2 2 2 6 4 3 3 4 3 4 3 3 3 2 3 3 1 2 1 0 3
7 7 8 5 7 20 20 19 14 13 15 17 13 12 13 14 14 12 10 9 10 9 9 8 9 8 7 4 5 4 4 3 6 5 7 5 2 2 3 3 1 1 3 1 1 1 2 2 3
8 6 2 3 10 21 16 19 14 11 13 14 15 13 13 13 14 13 11 10 10 7 6 8 8 7 5 3 2 3 3 3 2 5 8 9 7 3 3 2 3 2 1 1 1 2 1 2 3
6 7 6 1 3 19 24 8 12 14 16 16 15 13 12 11 13 10 11 11 10 10 9 8 7 6 5 7 4 5 3 2 4 5 4 5 6 6 6 5 5 3 2 0 1 1 1 0 2
9 6 8 7 8 3 4 5 6 10 12 12 11 10 10 10 12 9 8 9 7 5 6 5 6 7 7 7 5 3 5 4 2 6 4 7 7 9 8 5 4 3 2 1 3 2 2 2 1
3 4 5 3 5 4 9 10 2 7 9 9 8 9 9 9 7 6 5 3 3 2 3 3 1 1 1 2 4 3 6 3 5 4 6 7 5 6 5 2 5 4 3 3 4 3 2 2 2
1 9 10 7 4 4 5 7 3 4 4 5 6 7 6 5 3 3 4 4 3 4 2 5 4 4 6 6 7 7 8 5 4 4 4 5 4 4 5 6 4 4 3 4 4 4 4 3 2
12 8 5 7 7 5 2 11 3 9 8 8 7 5 5 4 4 3 3 2 4 4 5 5 4 5 5 5 6 6 6 6 5 5 4 6 5 5 6 8 5 4 5 5 4 4 3 3 2
3 7 6 4 3 7 8 5 4 6 8 6 5 3 3 2 2 5 5 5 5 5 3 4 4 4 6 6 7 6 5 3 3 3 3 2 3 4 6 8 10 6 8 6 5 3 3 3 4
5 3 2 4 1 3 4 4 8 8 6 6 6 5 5 5 5 4 5 5 6 5 5 5 5 5 5 7 6 7 6 6 4 4 3 3 4 3 1 1 4 8 9 8 3 2 3 3 3
6 4 6 5 2 3 4 3 4 9 6 6 7 7 6 6 4 4 3 6 5 3 3 4 4 4 5 7 5 2 4 5 5 5 5 5 4 4 4 3 2 4 6 6 4 2 3 2 1
8 7 4 3 4 2 3 2 1 3 4 6 8 5 4 4 4 3 6 4 4 2 3 5 5 6 7 7 3 3 5 6 6 6 6 5 4 4 5 5 1 4 5 7 6 9 4 4 2
3 3 2 5 3 3 7 5 3 3 3 3 3 4 5 5 4 6 3 3 3 5 6 4 6 6 5 5 4 5 6 7 6 5 6 5 5 6 5 5 5 5 4 6 6 3 5 5 5
Wind_Direction
227 171 133 50 49 54 335 251 318 271 221 273 306 104 117 61 155 199 140 139 134 146 142 139 134 129 126 124 122 118 112 110 109 104 98 95 94 92 89 87 83 80 75 68 62 57 49 45 38
233 115 35 94 99 72 266 199 211 235 116 140 81 96 61 63 65 111 113 134 137 135 133 137 136 133 131 127 122 117 115 116 111 103 100 98 95 93 91 89 85 81 75 71 66 61 54 46 34
265 203 109 134 122 178 235 209 212 227 154 173 78 66 76 95 116 133 127 132 128 110 116 137 131 129 127 124 119 116 116 110 102 102 102 99 96 92 89 86 85 84 82 76 68 62 54 41 29
189 14 27 75 259 251 242 188 222 151 106 42 157 89 89 52 98 125 130 132 121 122 126 132 130 129 128 125 123 122 114 108 110 110 106 103 100 98 96 97 96 91 81 75 73 65 54 41 33
41 71 54 339 270 252 229 218 141 152 148 218 198 65 87 75 117 129 137 135 130 131 138 137 137 135 134 136 133 125 122 121 119 116 115 115 115 117 113 107 100 90 83 71 62 58 41 31 25
21 86 47 264 258 275 355 195 153 168 142 172 120 107 32 130 132 144 138 135 134 127 114 123 128 126 126 122 118 119 124 126 128 129 131 132 134 131 129 129 123 108 74 54 41 33 29 30 33
132 98 228 232 258 303 210 152 153 167 161 212 119 88 164 150 136 122 111 109 111 116 119 118 123 131 122 122 121 120 124 126 130 132 137 144 142 143 146 143 137 138 107 56 27 23 23 41 26
109 99 299 278 303 261 227 169 158 156 111 143 142 155 191 145 112 98 83 61 75 108 125 124 112 107 120 133 134 140 144 141 141 146 155 157 155 158 159 160 155 141 97 47 8 16 64 43 19
113 23 269 264 260 286 336 122 190 50 124 168 72 80 90 85 89 97 80 76 54 18 332 122 124 122 119 132 152 149 152 154 160 167 175 165 160 168 168 183 180 159 91 43 21 88 69 38 14
130 148 239 212 225 225 258 253 145 114 130 82 81 78 81 97 92 81 74 72 67 69 261 37 80 106 137 155 152 168 173 167 168 178 185 143 188 237 193 248 273 147 97 93 37 48 44 42 36
202 223 248 236 271 170 29 5 56 121 314 166 148 108 92 98 108 97 91 81 89 99 55 328 305 235 179 176 185 117 169 113 166 205 197 165 91 24 77 26 52 82 79 48 34 40 39 30 23
174 248 254 293 239 54 15 266 41 59 140 105 75 98 102 97 99 113 106 101 107 106 122 300 255 247 235 194 169 171 166 149 302 14 80 127 173 129 118 98 92 79 48 45 47 42 28 25 353
101 299 297 301 2 93 42 68 87 76 81 87 91 85 80 83 83 86 108 120 128 121 155 201 217 214 212 332 342 126 156 105 130 143 123 112 85 83 81 93 79 68 58 52 52 35 27 5 337
294 295 313 323 14 20 66 33 81 62 82 83 86 90 92 101 99 103 122 133 120 121 147 148 38 31 33 35 38 33 70 87 58 57 60 65 78 81 81 75 80 84 78 63 65 53 21 341 333
341 3 341 314 357 197 121 32 92 110 93 90 85 89 86 86 105 99 102 104 121 96 47 37 51 62 49 46 41 34 31 39 41 33 39 58 66 74 73 79 67 43 81 74 51 25 3 6 335
8 42 4 304 190 18 73 87 82 89 100 95 91 83 71 62 78 98 77 65 52 53 48 24 61 48 31 38 50 57 61 66 45 38 31 23 73 99 105 98 100 139 72 58 62 17 7 353 335
4 263 309 27 7 59 86 112 91 81 83 86 76 58 51 55 66 83 73 75 87 100 74 20 26 50 41 7 6 3 353 58 67 25 1 314 313 84 102 118 124 107 84 50 74 26 98 323 325
301 15 38 58 19 76 94 94 91 95 94 88 78 79 72 67 60 74 85 84 77 56 57 52 27 20 15 351 292 48 9 19 3 335 300 309 270 160 140 164 117 84 69 41 54 32 14 286 301
103 67 51 354 77 68 90 92 85 92 90 99 98 88 77 64 74 62 71 75 78 66 50 40 32 16 25 352 333 5 18 333 345 349 344 313 321 141 187 115 169 71 66 13 245 50 358 316 349
62 54 13 323 81 93 105 93 93 78 82 99 104 92 83 73 54 48 45 49 54 39 35 31 32 24 18 10 328 13 312 2 332 346 345 332 346 283 302 222 213 184 117 36 55 70 19 315 42
33 32 358 325 106 113 112 83 103 83 75 76 74 86 86 88 78 51 46 41 37 21 12 27 19 12 20 20 16 9 328 277 14 336 308 329 304 299 272 216 213 191 147 205 348 206 69 299 346
33 330 9 4 39 301 181 119 101 97 82 66 51 51 60 59 70 68 45 42 24 29 360 3 22 6 360 17 346 2 335 348 330 298 279 298 315 299 290 248 180 210 156 212 237 191 196 136 299
247 337 351 10 9 70 354 86 131 145 71 64 69 70 70 73 87 88 96 130 208 313 59 350 356 241 352 264 283 340 295 290 269 290 323 322 319 315 334 178 186 203 207 199 220 244 220 188 185
251 28 18 26 31 45 312 108 27 56 127 111 97 93 90 93 116 189 218 235 246 252 274 275 277 309 325 314 301 278 279 316 6 337 322 314 317 328 327 297 251 232 212 220 220 229 227 218 193
46 47 358 0 8 239 30 70 101 98 101 125 142 133 144 164 148 248 261 331 332 325 288 298 340 343 337 3 4 352 355 349 332 301 300 327 331 341 330 326 301 277 241 238 231 225 229 230 183
309 134 150 242 226 266 32 72 102 136 123 110 95 148 125 190 218 266 300 297 293 309 358 5 18 351 356 357 336 324 335 329 331 354 0 356 338 335 337 342 319 293 280 244 223 230 225 214 203
300 14 197 117 10 64 115 103 141 130 123 142 168 200 217 219 227 252 289 318 1 37 59 48 359 324 334 334 343 351 4 352 325 321 300 340 319 287 333 272 343 332 321 318 314 251 239 230 193
62 269 20 7 314 279 80 78 334 154 188 182 193 205 220 196 189 253 341 41 50 59 38 358 338 323 321 336 355 7 315 314 320 311 348 343 304 307 345 321 338 318 25 16 15 341 241 160 246
349 348 33 125 104 26 350 161 45 103 150 166 204 172 212 230 244 26 54 58 34 11 341 332 347 342 344 343 334 327 321 329 327 316 319 312 322 332 347 349 346 122 112 80 38 335 18 54 43
60 342 89 116 316 118 149 235 324 150 169 192 190 220 247 234 58 79 58 22 356 354 12 336 339 349 337 325 342 331 354 320 311 334 347 20 21 8 3 15 47 61 45 77 76 6 17 39 27